Weather in Betim

Brazil     19°57′27″S   44°08′45″W
temp.,
°C
wind,
m/s
gust,
m/s
humid.,
%
clouds,
%
prec.,
mm/h
press.,
hPa
HPBL,
m
20 may, fri
fri2000:00+7s11890 0.0 102013
03:00+6s11912 0.0 102111
06:00+5sse11920 0.0 102110
09:00+14ese12640 0.0 1022385
12:00+20nne12400 0.0 10191406
15:00+21nw01350 0.0 10171595
18:00+13ssw11530 0.0 101912
21:00+10sse11710 0.0 102212
21 may, sat
sat2100:00+9s11820 0.0 102211
03:00+8sse22870 0.0 102311
06:00+7sse11880 0.0 102411
09:00+16e24550 0.0 1025486
12:00+21nne33370 0.0 10221561
15:00+22ne12323 0.0 10191773
18:00+15sse22480 0.0 102011
21:00+12se226025 0.0 102312
22 may, sun
sun2200:00+10se117920 0.0 102313
03:00+9sse22860 0.0 102213
06:00+9se11880 0.0 102314
09:00+17ene24590 0.0 1024529
12:00+23nne33405 0.0 10211445
15:00+24nw02340 0.0 10181896
18:00+17sse22510 0.0 101911
21:00+13e22612 0.0 102127
23 may, mon
mon2300:00+12sse118029 0.0 102217
03:00+11se11881 0.0 102016
06:00+10se11905 0.0 102117
09:00+18e23615 0.0 1022489
12:00+24nne22412 0.0 10201494
15:00+24w12361 0.0 10182069
18:00+18ese11522 0.0 101911
21:00+14se22662 0.0 102116
24 may, tue
tue2400:00+12se12815 0.0 102116
03:00+11sse22880 0.0 102118
06:00+11sse21900 0.0 102215
09:00+18se23592 0.0 1023448
12:00+25se12380 0.0 10211464
15:00+25ssw12315 0.0 10182164
18:00+18sse245920 0.0 102187
21:00+14sse227823 0.0 102321